| time (UTC) | temp C | wind direction | speed KPH | gust KPH | rain 1hr cm | rain 24hr cm | rain mn cm | humidity % | barometer mb |
| 20260502221647 | 11 | 188 | 0.0 | 0.0 | 0.23 | 0.84 | 0.84 | 93 | 1008.9 |
| 20260502220947 | 11 | 186 | 0.0 | 0.0 | 0.18 | 0.79 | 0.79 | 93 | 1008.9 |
| 20260502220247 | 11 | 186 | 0.0 | 0.0 | 0.18 | 0.76 | 0.76 | 93 | 1009.0 |
| 20260502215547 | 11 | 186 | 0.0 | 0.0 | 0.15 | 0.71 | 0.71 | 92 | 1009.1 |
| 20260502214847 | 11 | 186 | 0.0 | 0.0 | 0.13 | 0.69 | 0.69 | 92 | 1009.1 |
| 20260502214147 | 11 | 186 | 0.0 | 0.0 | 0.10 | 0.66 | 0.66 | 92 | 1009.1 |
| 20260502213447 | 11 | 186 | 0.0 | 0.0 | 0.08 | 0.61 | 0.61 | 92 | 1009.2 |
| 20260502212747 | 11 | 186 | 0.0 | 0.0 | 0.10 | 0.61 | 0.61 | 92 | 1009.1 |
| 20260502212047 | 11 | 186 | 0.0 | 0.0 | 0.13 | 0.61 | 0.61 | 92 | 1009.0 |
| 20260502211347 | 11 | 186 | 0.0 | 0.0 | 0.15 | 0.61 | 0.61 | 91 | 1009.1 |
| 20260502210648 | 11 | 186 | 0.0 | 0.0 | 0.15 | 0.58 | 0.58 | 91 | 1009.1 |
| 20260502205948 | 11 | 186 | 0.0 | 0.0 | 0.18 | 0.58 | 0.58 | 91 | 1009.1 |
| 20260502205248 | 11 | 186 | 0.0 | 0.0 | 0.18 | 0.56 | 0.56 | 91 | 1009.1 |
| 20260502204548 | 11 | 186 | 0.0 | 0.0 | 0.20 | 0.56 | 0.56 | 91 | 1009.2 |
| 20260502203848 | 11 | 186 | 0.0 | 0.0 | 0.25 | 0.56 | 0.56 | 91 | 1009.3 |
| 20260502203148 | 11 | 186 | 0.0 | 0.0 | 0.25 | 0.53 | 0.53 | 90 | 1009.4 |
| 20260502202448 | 11 | 186 | 0.0 | 0.0 | 0.28 | 0.51 | 0.51 | 90 | 1009.3 |
| 20260502201748 | 11 | 186 | 0.0 | 0.0 | 0.28 | 0.48 | 0.48 | 89 | 1009.4 |
| 20260502201048 | 11 | 186 | 0.0 | 0.0 | 0.28 | 0.46 | 0.46 | 88 | 1009.5 |
| 20260502200348 | 11 | 186 | 0.0 | 0.0 | 0.28 | 0.43 | 0.43 | 88 | 1009.7 |
| 20260502195648 | 12 | 186 | 0.0 | 0.0 | 0.28 | 0.41 | 0.41 | 87 | 1009.7 |
| 20260502194948 | 12 | 186 | 0.0 | 0.0 | 0.28 | 0.38 | 0.38 | 87 | 1009.7 |
| 20260502194248 | 12 | 186 | 0.0 | 0.0 | 0.28 | 0.36 | 0.36 | 87 | 1009.8 |
| 20260502193548 | 12 | 186 | 0.0 | 0.0 | 0.25 | 0.30 | 0.30 | 86 | 1009.9 |
| 20260502192848 | 12 | 186 | 0.0 | 0.0 | 0.20 | 0.25 | 0.25 | 86 | 1009.8 |
| 20260502192148 | 13 | 186 | 0.0 | 0.0 | 0.18 | 0.23 | 0.23 | 86 | 1009.9 |
| 20260502191448 | 13 | 186 | 0.0 | 0.0 | 0.15 | 0.20 | 0.20 | 86 | 1009.9 |
| 20260502190748 | 13 | 186 | 0.0 | 0.0 | 0.10 | 0.15 | 0.15 | 86 | 1010.0 |
| 20260502190048 | 13 | 186 | 0.0 | 0.0 | 0.10 | 0.15 | 0.15 | 86 | 1010.0 |
| 20260502185348 | 13 | 188 | 0.0 | 0.0 | 0.08 | 0.10 | 0.10 | 84 | 1010.0 |
| 20260502184648 | 13 | 188 | 0.0 | 0.0 | 0.08 | 0.10 | 0.10 | 84 | 1010.0 |
| 20260502183948 | 13 | 188 | 0.0 | 0.0 | 0.03 | 0.05 | 0.05 | 83 | 1010.0 |
| 20260502183248 | 13 | 188 | 0.0 | 0.0 | 0.03 | 0.05 | 0.05 | 82 | 1010.0 |
| 20260502182548 | 13 | 188 | 0.0 | 0.0 | 0.03 | 0.05 | 0.05 | 81 | 1010.0 |
| 20260502181848 | 14 | 188 | 0.0 | 0.0 | 0.03 | 0.05 | 0.05 | 81 | 1010.1 |
| 20260502181148 | 14 | 188 | 0.0 | 0.0 | 0.05 | 0.05 | 0.05 | 80 | 1010.0 |
| 20260502180448 | 14 | 187 | 0.0 | 0.0 | 0.05 | 0.05 | 0.05 | 79 | 1010.0 |
| 20260502170149 | 16 | 175 | 0.0 | 0.0 | 0.00 | 0.00 | 0.00 | 65 | 1010.3 |
| 20260502164048 | 16 | 182 | 0.0 | 0.0 | 0.00 | 0.00 | 0.00 | 59 | 1010.4 |
| 20260502163348 | 16 | 179 | 0.0 | 0.0 | 0.00 | 0.00 | 0.00 | 60 | 1010.4 |
| 20260502162648 | 16 | 179 | 0.0 | 0.0 | 0.00 | 0.00 | 0.00 | 59 | 1010.5 |
| 20260502161949 | 17 | 198 | 0.0 | 0.0 | 0.00 | 0.00 | 0.00 | 59 | 1010.5 |
| 20260502161249 | 17 | 201 | 0.0 | 0.0 | 0.00 | 0.00 | 0.00 | 59 | 1010.5 |
| 20260502160549 | 17 | 184 | 0.0 | 0.0 | 0.00 | 0.00 | 0.00 | 58 | 1010.5 |
| 20260502151649 | 17 | 175 | 0.0 | 0.0 | 0.00 | 0.10 | 0.00 | 56 | 1011.3 |
| 20260502150949 | 17 | 175 | 0.0 | 0.0 | 0.00 | 0.10 | 0.00 | 55 | 1011.2 |
| 20260502150249 | 17 | 123 | 0.0 | 0.0 | 0.00 | 0.10 | 0.00 | 56 | 1011.4 |
| 20260502130349 | 18 | 161 | 1.6 | 3.2 | 0.00 | 0.15 | 0.00 | 57 | 1012.7 |
| 20260502123549 | 17 | 244 | 3.2 | 6.4 | 0.00 | 0.15 | 0.00 | 58 | 1013.0 |
| 20260502122849 | 17 | 200 | 1.6 | 6.4 | 0.00 | 0.15 | 0.00 | 60 | 1013.0 |
| 20260502122149 | 17 | 205 | 0.0 | 0.0 | 0.00 | 0.15 | 0.00 | 59 | 1013.1 |
| 20260502121449 | 17 | 121 | 0.0 | 0.0 | 0.00 | 0.15 | 0.00 | 58 | 1013.2 |
| 20260502120749 | 17 | 123 | 0.0 | 0.0 | 0.00 | 0.15 | 0.00 | 59 | 1013.3 |
| 20260502115349 | 16 | 232 | 0.0 | 0.0 | 0.00 | 0.15 | 0.00 | 62 | 1013.5 |
| 20260502114649 | 16 | 75 | 0.0 | 0.0 | 0.00 | 0.15 | 0.00 | 61 | 1013.7 |
| 20260502113949 | 16 | 63 | 0.0 | 0.0 | 0.00 | 0.15 | 0.00 | 62 | 1013.7 |
| 20260502113250 | 16 | 264 | 0.0 | 0.0 | 0.00 | 0.15 | 0.00 | 61 | 1013.8 |
| 20260502112550 | 16 | 202 | 0.0 | 0.0 | 0.00 | 0.15 | 0.00 | 61 | 1013.8 |
| 20260502111850 | 16 | 226 | 0.0 | 0.0 | 0.00 | 0.15 | 0.00 | 61 | 1014.0 |
| 20260502111150 | 16 | 227 | 0.0 | 0.0 | 0.00 | 0.15 | 0.00 | 61 | 1014.2 |
| 20260502110450 | 16 | 219 | 0.0 | 0.0 | 0.00 | 0.15 | 0.00 | 61 | 1014.3 |
| 20260502105750 | 16 | 222 | 0.0 | 0.0 | 0.00 | 0.15 | 0.00 | 64 | 1014.4 |
| 20260502105050 | 16 | 173 | 0.0 | 0.0 | 0.00 | 0.15 | 0.00 | 64 | 1014.4 |
| 20260502104350 | 16 | 184 | 0.0 | 0.0 | 0.00 | 0.15 | 0.00 | 64 | 1014.4 |
| 20260502103650 | 16 | 182 | 0.0 | 0.0 | 0.00 | 0.15 | 0.00 | 65 | 1014.2 |
| 20260502102950 | 15 | 180 | 0.0 | 0.0 | 0.00 | 0.15 | 0.00 | 67 | 1014.2 |
| 20260502102250 | 15 | 324 | 0.0 | 0.0 | 0.00 | 0.15 | 0.00 | 66 | 1014.3 |
| 20260502101550 | 15 | 248 | 0.0 | 3.2 | 0.00 | 0.15 | 0.00 | 67 | 1014.5 |
| 20260502100850 | 15 | 266 | 0.0 | 0.0 | 0.00 | 0.15 | 0.00 | 68 | 1014.5 |
| 20260502100150 | 15 | 264 | 0.0 | 0.0 | 0.00 | 0.15 | 0.00 | 67 | 1014.5 |
| 20260502091250 | 13 | 329 | 1.6 | 6.4 | 0.00 | 0.15 | 0.00 | 73 | 1015.0 |
| 20260502090550 | 13 | 228 | 1.6 | 6.4 | 0.00 | 0.15 | 0.00 | 76 | 1015.1 |
| 20260502071350 | 10 | 305 | 0.0 | 0.0 | 0.00 | 0.15 | 0.00 | 95 | 1015.4 |
| 20260502070650 | 10 | 310 | 0.0 | 1.6 | 0.00 | 0.15 | 0.00 | 95 | 1015.3 |
| 20260502065950 | 10 | 316 | 0.0 | 0.0 | 0.00 | 0.15 | 0.00 | 95 | 1015.3 |
| 20260502065250 | 9 | 317 | 0.0 | 0.0 | 0.00 | 0.15 | 0.00 | 96 | 1015.4 |
| 20260502064550 | 9 | 317 | 0.0 | 0.0 | 0.00 | 0.15 | 0.00 | 96 | 1015.5 |
| 20260502063850 | 8 | 317 | 0.0 | 0.0 | 0.00 | 0.15 | 0.00 | 95 | 1015.4 |
| 20260502063151 | 8 | 317 | 0.0 | 0.0 | 0.00 | 0.15 | 0.00 | 95 | 1015.4 |
| 20260502062451 | 8 | 317 | 0.0 | 0.0 | 0.00 | 0.15 | 0.00 | 95 | 1015.5 |
| 20260502061751 | 8 | 317 | 0.0 | 0.0 | 0.00 | 0.15 | 0.00 | 95 | 1015.5 |
| 20260502061051 | 7 | 317 | 0.0 | 0.0 | 0.00 | 0.15 | 0.00 | 95 | 1015.5 |
| 20260502060351 | 7 | 317 | 0.0 | 0.0 | 0.00 | 0.15 | 0.00 | 95 | 1015.4 |
| 20260502055651 | 7 | 317 | 0.0 | 0.0 | 0.00 | 0.15 | 0.00 | 95 | 1015.4 |
| 20260502054951 | 7 | 348 | 0.0 | 0.0 | 0.00 | 0.15 | 0.00 | 95 | 1015.3 |
| 20260502054251 | 7 | 348 | 0.0 | 0.0 | 0.00 | 0.15 | 0.00 | 95 | 1015.3 |
| 20260502053551 | 7 | 348 | 0.0 | 0.0 | 0.00 | 0.15 | 0.00 | 95 | 1015.2 |
| 20260502052851 | 7 | 348 | 0.0 | 0.0 | 0.00 | 0.15 | 0.00 | 95 | 1015.2 |
| 20260502052151 | 7 | 348 | 0.0 | 0.0 | 0.00 | 0.15 | 0.00 | 95 | 1015.2 |
| 20260502051451 | 7 | 342 | 0.0 | 0.0 | 0.00 | 0.15 | 0.00 | 95 | 1015.2 |
| 20260502050751 | 7 | 342 | 0.0 | 0.0 | 0.00 | 0.15 | 0.00 | 95 | 1015.2 |
| 20260502050051 | 7 | 342 | 0.0 | 0.0 | 0.00 | 0.15 | 0.00 | 94 | 1015.2 |
| 20260502045351 | 7 | 342 | 0.0 | 0.0 | 0.00 | 0.15 | 0.00 | 94 | 1015.2 |
| 20260502044651 | 7 | 238 | 0.0 | 0.0 | 0.00 | 0.15 | 0.00 | 94 | 1015.3 |
| 20260502043951 | 7 | 238 | 0.0 | 0.0 | 0.00 | 0.15 | 0.00 | 94 | 1015.2 |
| 20260502043251 | 7 | 238 | 0.0 | 0.0 | 0.00 | 0.15 | 0.00 | 95 | 1015.2 |
| 20260502042551 | 7 | 238 | 0.0 | 0.0 | 0.00 | 0.15 | 0.00 | 94 | 1015.2 |
| 20260502041851 | 7 | 238 | 0.0 | 3.2 | 0.00 | 0.15 | 0.00 | 94 | 1015.3 |
| 20260502041151 | 7 | 238 | 0.0 | 0.0 | 0.00 | 0.15 | 0.00 | 94 | 1015.3 |
| 20260502040451 | 7 | 238 | 0.0 | 0.0 | 0.00 | 0.15 | 0.00 | 94 | 1015.3 |
| 20260502035751 | 7 | 238 | 0.0 | 0.0 | 0.00 | 0.15 | 0.00 | 94 | 1015.3 |
| 20260502035051 | 7 | 238 | 0.0 | 0.0 | 0.00 | 0.15 | 0.00 | 94 | 1015.4 |
| 20260502034351 | 6 | 238 | 0.0 | 0.0 | 0.00 | 0.15 | 0.00 | 94 | 1015.5 |
| 20260502033651 | 6 | 238 | 0.0 | 0.0 | 0.00 | 0.15 | 0.00 | 94 | 1015.4 |
| 20260502032951 | 6 | 238 | 0.0 | 0.0 | 0.00 | 0.15 | 0.00 | 94 | 1015.5 |
| 20260502032251 | 6 | 238 | 0.0 | 0.0 | 0.00 | 0.15 | 0.00 | 94 | 1015.6 |
| 20260502031551 | 6 | 238 | 0.0 | 1.6 | 0.00 | 0.15 | 0.00 | 94 | 1015.7 |
| 20260502030851 | 6 | 238 | 0.0 | 0.0 | 0.00 | 0.15 | 0.00 | 94 | 1015.7 |
| 20260502030151 | 6 | 238 | 0.0 | 0.0 | 0.00 | 0.15 | 0.00 | 93 | 1015.7 |
| 20260502025451 | 7 | 238 | 0.0 | 0.0 | 0.00 | 0.15 | 0.00 | 93 | 1015.7 |
| 20260502024751 | 7 | 238 | 0.0 | 0.0 | 0.00 | 0.15 | 0.00 | 94 | 1015.7 |
| 20260502024051 | 7 | 238 | 0.0 | 0.0 | 0.00 | 0.15 | 0.00 | 94 | 1015.7 |
| 20260502023351 | 7 | 238 | 0.0 | 0.0 | 0.00 | 0.15 | 0.00 | 94 | 1015.8 |
| 20260502022651 | 7 | 238 | 0.0 | 0.0 | 0.00 | 0.15 | 0.00 | 94 | 1015.8 |
| 20260502021951 | 7 | 237 | 0.0 | 0.0 | 0.00 | 0.15 | 0.00 | 93 | 1015.8 |
| 20260502021251 | 7 | 237 | 0.0 | 0.0 | 0.00 | 0.15 | 0.00 | 93 | 1015.9 |
| 20260502020551 | 7 | 237 | 0.0 | 0.0 | 0.00 | 0.15 | 0.00 | 93 | 1015.9 |
| 20260502015851 | 7 | 237 | 0.0 | 0.0 | 0.00 | 0.15 | 0.15 | 93 | 1015.9 |
| 20260502015152 | 7 | 237 | 0.0 | 0.0 | 0.00 | 0.15 | 0.15 | 93 | 1016.0 |
| 20260502014452 | 7 | 237 | 0.0 | 0.0 | 0.00 | 0.15 | 0.15 | 93 | 1016.1 |
| 20260502013752 | 7 | 237 | 0.0 | 0.0 | 0.00 | 0.15 | 0.15 | 93 | 1016.2 |
| 20260502013052 | 7 | 237 | 0.0 | 0.0 | 0.00 | 0.15 | 0.15 | 93 | 1016.2 |
| 20260502012352 | 8 | 237 | 0.0 | 0.0 | 0.00 | 0.15 | 0.15 | 93 | 1016.3 |
| 20260502011652 | 8 | 237 | 0.0 | 0.0 | 0.00 | 0.15 | 0.15 | 93 | 1016.4 |
| 20260502010952 | 8 | 237 | 0.0 | 0.0 | 0.00 | 0.15 | 0.15 | 93 | 1016.5 |
| 20260502010252 | 8 | 237 | 0.0 | 0.0 | 0.00 | 0.15 | 0.15 | 93 | 1016.6 |
| 20260502005552 | 8 | 238 | 0.0 | 0.0 | 0.00 | 0.15 | 0.15 | 93 | 1016.7 |
| 20260502004852 | 8 | 238 | 0.0 | 1.6 | 0.00 | 0.15 | 0.15 | 93 | 1016.7 |
| 20260502004152 | 8 | 236 | 0.0 | 0.0 | 0.00 | 0.15 | 0.15 | 92 | 1016.8 |
| 20260502003452 | 8 | 236 | 0.0 | 0.0 | 0.00 | 0.15 | 0.15 | 93 | 1016.7 |
| 20260502002752 | 8 | 236 | 0.0 | 0.0 | 0.00 | 0.15 | 0.15 | 93 | 1016.8 |
| 20260502002052 | 8 | 236 | 0.0 | 0.0 | 0.00 | 0.15 | 0.15 | 92 | 1016.9 |
| 20260502001352 | 8 | 236 | 0.0 | 0.0 | 0.00 | 0.15 | 0.15 | 93 | 1017.0 |
| 20260502000652 | 8 | 236 | 0.0 | 0.0 | 0.00 | 0.15 | 0.15 | 93 | 1017.0 |
| 20260501235952 | 8 | 236 | 0.0 | 0.0 | 0.00 | 0.15 | 0.15 | 92 | 1017.0 |
| 20260501235252 | 9 | 236 | 0.0 | 0.0 | 0.00 | 0.15 | 0.15 | 92 | 1017.0 |
| 20260501234552 | 9 | 236 | 0.0 | 0.0 | 0.00 | 0.15 | 0.15 | 92 | 1017.0 |
| 20260501233852 | 9 | 236 | 0.0 | 0.0 | 0.00 | 0.15 | 0.15 | 92 | 1017.0 |
| 20260501233152 | 9 | 236 | 0.0 | 0.0 | 0.00 | 0.15 | 0.15 | 92 | 1017.0 |
| 20260501232452 | 9 | 236 | 0.0 | 0.0 | 0.00 | 0.15 | 0.15 | 93 | 1017.1 |
| 20260501231752 | 9 | 236 | 0.0 | 3.2 | 0.00 | 0.15 | 0.15 | 93 | 1017.1 |
| 20260501231052 | 9 | 240 | 0.0 | 1.6 | 0.00 | 0.15 | 0.15 | 93 | 1017.2 |
| 20260501230352 | 9 | 240 | 0.0 | 3.2 | 0.00 | 0.15 | 0.15 | 93 | 1017.1 |
| 20260501225652 | 9 | 268 | 0.0 | 0.0 | 0.00 | 0.15 | 0.15 | 92 | 1017.2 |
| 20260501224952 | 9 | 268 | 0.0 | 0.0 | 0.00 | 0.15 | 0.15 | 93 | 1017.1 |
| 20260501224252 | 10 | 268 | 0.0 | 0.0 | 0.00 | 0.15 | 0.15 | 93 | 1017.1 |
| 20260501223552 | 10 | 268 | 0.0 | 0.0 | 0.00 | 0.15 | 0.15 | 92 | 1017.2 |
| 20260501222852 | 10 | 268 | 0.0 | 0.0 | 0.00 | 0.15 | 0.15 | 92 | 1017.1 |